Waarnemingen

Advertentie
Mijn weer
Laupheim, Duitsland (10837): temperatuur & dauwpunt: 16.01.2018 21:00:00 - 22.01.2018 21:00:00 (CET)Laupheim, Duitsland (10837): temperatuur -5cm: 16.01.2018 21:00:00 - 22.01.2018 21:00:00 (CET)Laupheim, Duitsland (10837): temperatuur -20cm & temperatuur -100cm: 16.01.2018 21:00:00 - 22.01.2018 21:00:00 (CET)Laupheim, Duitsland (10837): windsnelheid & windstoten: 16.01.2018 21:00:00 - 22.01.2018 21:00:00 (CET)Laupheim, Duitsland (10837): windrichting: 16.01.2018 21:00:00 - 22.01.2018 21:00:00 (CET)Laupheim, Duitsland (10837): luchtdruk: 16.01.2018 21:00:00 - 22.01.2018 21:00:00 (CET)Laupheim, Duitsland (10837): zicht: 16.01.2018 21:00:00 - 22.01.2018 21:00:00 (CET)
Datum & Tijd tt [°C] td [°C] tt -5cm [°C] tt -20cm [°C] tt -100cm [°C] ff [km/u] ff [kn] fx [km/u] fx [kn] dd ppp [hPa] vv [km]
22.01.2018 21:00:00 - - - - - - - - - - - -
22.01.2018 20:00:00 5,4 5,0 - - - 7 4 - - W 1014,5 7
22.01.2018 19:00:00 5,9 5,7 - - - 7 4 - - NW 1012,8 6
22.01.2018 18:00:00 6,0 5,9 - - - 0 0 - - N 1011,4 2,2
22.01.2018 17:00:00 5,7 5,6 - - - 4 2 - - NNO 1010,8 0,6
22.01.2018 16:00:00 6,3 6,0 - - - 7 4 - - NW 1010,2 0,8
22.01.2018 15:00:00 7,0 6,3 1,9 1,2 - 14 8 - - ZW 1009,9 6
22.01.2018 14:00:00 7,0 6,0 - - - 25 14 47 25 ZW 1010,3 12
22.01.2018 13:00:00 6,9 6,2 - - - 22 12 - - WZW 1010,4 15
22.01.2018 12:00:00 6,0 5,6 - - - 22 12 - - WZW 1010,9 10
22.01.2018 11:00:00 4,9 4,7 - - - 14 8 - - ZW 1011,3 4,5
22.01.2018 10:00:00 4,2 4,0 - - - 11 6 - - ZW 1011,7 1,2
22.01.2018 09:00:00 2,5 2,4 - - - 7 4 - - ZW 1012,1 1,8
22.01.2018 08:00:00 1,5 1,4 0,3 1,4 5,1 7 4 - - WZW 1012,3 1,5
22.01.2018 07:00:00 0,5 0,3 - - - 4 2 - - WZW 1012,6 1,5
22.01.2018 06:00:00 0,5 0,3 - - - 7 4 - - W 1012,5 4,0
22.01.2018 05:00:00 0,1 -0,2 - - - 4 2 - - Z 1012,8 4,0
22.01.2018 04:00:00 -0,5 -0,8 - - - 4 2 - - O 1013,9 3,0
22.01.2018 03:00:00 -0,5 -0,9 - - - 7 4 - - ZZO 1014,6 3,0
22.01.2018 02:00:00 -0,4 -1,0 - - - 7 4 - - ZO 1015,4 4,0
22.01.2018 01:00:00 -0,2 -1,1 - - - 11 6 - - Z 1016,9 8
22.01.2018 00:00:00 -0,1 -1,4 - - - 11 6 - - ZZW 1017,9 12
21.01.2018 23:00:00 -0,1 -3,0 - - - 7 4 - - ZZW 1019,1 20
21.01.2018 22:00:00 -0,5 -3,2 - - - 4 2 - - N 1019,9 20
21.01.2018 21:00:00 -1,0 -3,3 - - - 7 4 - - Z 1020,6 30
21.01.2018 20:00:00 -0,9 -3,2 - - - 7 4 - - Z 1020,8 30
21.01.2018 19:00:00 -0,9 -3,6 - - - 7 4 - - Z 1021,2 30
21.01.2018 18:00:00 -0,9 -3,0 - - - 7 4 - - ZZW 1021,1 30
21.01.2018 17:00:00 -0,3 -3,6 - - - 7 4 - - W 1020,9 35
21.01.2018 16:00:00 0,5 -3,6 - - - 7 4 - - NNW 1020,3 35
21.01.2018 15:00:00 1,7 -4,5 0,9 1,5 - 14 8 - - WNW 1019,2 15
21.01.2018 14:00:00 1,1 -4,4 - - - 14 8 - - WNW 1018,9 30
21.01.2018 13:00:00 1,4 -3,3 - - - 18 10 - - WNW 1017,9 30
21.01.2018 12:00:00 -0,3 -1,3 - - - 11 6 - - NW 1018,0 8
21.01.2018 11:00:00 1,0 -1,7 - - - 9 5 - - NW 1016,2 8
21.01.2018 10:00:00 0,9 -1,3 - - - 18 10 - - W 1015,0 14
21.01.2018 09:00:00 0,6 -1,3 - - - 14 8 - - WNW 1013,6 10
21.01.2018 08:00:00 0,5 -0,7 0,4 1,5 5,2 14 8 - - WNW 1011,9 8
21.01.2018 07:00:00 1,0 0,0 - - - 14 8 - - NW 1010,0 8
21.01.2018 06:00:00 0,6 -0,4 - - - 11 6 - - W 1008,6 20
21.01.2018 05:00:00 0,9 -0,7 - - - 11 6 - - W 1007,5 12
21.01.2018 04:00:00 1,3 -0,5 - - - 14 8 - - WNW 1006,1 10
21.01.2018 03:00:00 1,4 0,0 - - - 11 6 - - WNW 1004,7 10
21.01.2018 02:00:00 1,4 0,9 - - - 7 4 - - W 1002,6 8
21.01.2018 01:00:00 - - - - - - - - - - - -
21.01.2018 00:00:00 1,3 1,1 - - - 11 6 - - WZW 1000,4 6
20.01.2018 23:00:00 1,0 0,8 - - - 7 4 - - WZW 1000,1 4,0
20.01.2018 22:00:00 0,4 0,2 - - - 4 2 - - ZW 1000,7 3,2
20.01.2018 21:00:00 0,4 0,1 - - - 7 4 - - ZW 1000,5 2,5
20.01.2018 20:00:00 0,3 0,0 - - - 7 4 - - ZZW 1000,7 1,2
20.01.2018 19:00:00 0,3 -0,2 - - - 11 6 - - ZZO 1001,0 1,5
20.01.2018 18:00:00 0,7 -0,2 - - - 7 4 - - ZO 1002,0 3,0
20.01.2018 17:00:00 2,0 -0,6 - - - 14 8 - - ZW 1002,9 5
20.01.2018 16:00:00 2,9 -1,2 - - - 11 6 - - Z 1004,2 12
20.01.2018 15:00:00 2,6 -1,0 2,4 1,8 - 11 6 - - ZZW 1005,8 9
20.01.2018 14:00:00 1,9 -0,3 - - - 14 8 - - ZZW 1008,1 10
20.01.2018 13:00:00 1,7 0,0 - - - 22 12 - - ZW 1010,2 8
20.01.2018 12:00:00 1,2 0,1 - - - 22 12 - - ZW 1012,0 6
20.01.2018 11:00:00 1,4 -0,6 - - - 22 12 - - ZW 1013,1 20
20.01.2018 10:00:00 0,7 -0,6 - - - 18 10 - - ZW 1013,9 3,0
20.01.2018 09:00:00 0,2 -0,5 - - - 18 10 - - ZW 1014,4 18
20.01.2018 08:00:00 0,2 -0,8 0,3 1,9 5,2 18 10 - - ZW 1014,2 8
20.01.2018 07:00:00 0,5 -1,4 - - - 22 12 - - ZW 1014,3 3,8
20.01.2018 06:00:00 1,0 -1,6 - - - 25 14 - - WZW 1014,6 20
20.01.2018 05:00:00 0,4 -1,5 - - - 22 12 - - ZW 1015,1 20
20.01.2018 04:00:00 0,4 -1,2 - - - 18 10 - - WZW 1015,7 20
20.01.2018 03:00:00 0,6 -1,1 - - - 18 10 - - WZW 1016,3 20
20.01.2018 02:00:00 0,6 -0,9 - - - 11 6 - - ZW 1016,2 20
20.01.2018 01:00:00 0,9 -1,1 - - - 14 8 - - WZW 1015,9 20
20.01.2018 00:00:00 1,2 -0,3 - - - 14 8 - - W 1015,3 20
19.01.2018 23:00:00 1,4 0,3 - - - 18 10 - - W 1014,4 20
19.01.2018 22:00:00 1,2 0,4 - - - 18 10 - - ZW 1013,9 7
19.01.2018 21:00:00 2,1 0,4 - - - 14 8 - - ZW 1013,3 20
19.01.2018 20:00:00 2,6 -0,4 - - - 22 12 - - ZW 1012,9 25
19.01.2018 19:00:00 3,0 -1,5 - - - 22 12 - - ZW 1012,8 25
19.01.2018 18:00:00 3,1 -2,0 - - - 11 6 - - ZW 1012,9 30
19.01.2018 17:00:00 3,9 -3,0 - - - 11 6 - - WZW 1013,0 30
19.01.2018 16:00:00 4,4 -3,7 - - - 22 12 - - W 1013,1 30
19.01.2018 15:00:00 4,6 -3,9 4,9 3,1 - 22 12 - - W 1013,0 40
19.01.2018 14:00:00 4,3 -3,7 - - - 32 18 47 25 W 1013,2 40
19.01.2018 13:00:00 4,4 -3,1 - - - 25 14 - - W 1013,3 40
19.01.2018 12:00:00 3,9 -2,4 - - - 25 14 47 25 W 1014,0 40
19.01.2018 11:00:00 3,5 -2,1 - - - 29 16 - - W 1013,7 50
19.01.2018 10:00:00 2,6 -1,7 - - - 25 14 - - W 1013,4 50
19.01.2018 09:00:00 1,6 -1,0 - - - 22 12 - - W 1012,3 50
19.01.2018 08:00:00 2,0 -0,6 1,1 2,7 5,3 18 10 - - W 1010,9 40
19.01.2018 07:00:00 2,4 0,8 - - - 18 10 - - W 1009,9 25
19.01.2018 06:00:00 2,4 0,8 - - - 22 12 - - WNW 1009,1 19
19.01.2018 05:00:00 3,5 2,2 - - - 18 10 - - W 1007,8 19
19.01.2018 04:00:00 3,7 2,3 - - - 22 12 - - W 1007,1 20
19.01.2018 03:00:00 3,5 2,2 - - - 18 10 - - WZW 1007,2 18
19.01.2018 02:00:00 3,7 2,2 - - - 25 14 - - WZW 1007,1 18
19.01.2018 01:00:00 4,1 2,3 - - - 18 10 - - WZW 1006,6 18
19.01.2018 00:00:00 4,1 2,8 - - - 22 12 - - WZW 1006,8 18
18.01.2018 23:00:00 3,8 2,7 - - - 18 10 - - WZW 1007,0 18
18.01.2018 22:00:00 4,5 3,0 - - - 22 12 - - WZW 1007,1 18
18.01.2018 21:00:00 4,4 3,5 - - - 22 12 54 29 W 1007,4 8
18.01.2018 20:00:00 5,0 3,4 - - - 40 21 58 31 WZW 1006,4 9
18.01.2018 19:00:00 5,1 3,9 - - - 32 18 - - W 1005,7 9
18.01.2018 18:00:00 5,8 3,2 - - - 40 21 65 35 WZW 1004,4 15
18.01.2018 17:00:00 5,6 3,0 - - - 40 21 68 37 WZW 1004,5 15
18.01.2018 16:00:00 5,6 2,7 - - - 40 21 - - WZW 1004,6 30
18.01.2018 15:00:00 4,7 2,5 0,8 1,4 - 40 21 65 35 ZW 1004,8 30
18.01.2018 14:00:00 4,3 2,1 - - - 43 23 61 33 ZW 1005,9 25
18.01.2018 13:00:00 3,9 1,6 - - - 40 21 - - ZW 1006,6 25
18.01.2018 12:00:00 3,3 1,3 - - - 40 21 58 31 ZW 1007,3 15
18.01.2018 11:00:00 2,8 0,6 - - - 36 19 72 39 ZW 1008,3 30
18.01.2018 10:00:00 2,4 0,2 - - - 43 23 - - WZW 1008,0 30
18.01.2018 09:00:00 1,7 0,0 - - - 43 23 68 37 WZW 1008,5 16
18.01.2018 08:00:00 1,5 -0,3 0,3 1,6 5,5 40 21 58 31 ZW 1009,4 16
18.01.2018 07:00:00 1,5 -0,3 - - - 32 18 - - ZW 1010,9 20
18.01.2018 06:00:00 1,3 -0,3 - - - 29 16 50 27 ZW 1012,2 20
18.01.2018 05:00:00 1,0 -0,4 - - - 29 16 50 27 ZW 1013,6 15
18.01.2018 04:00:00 1,3 -0,9 - - - 25 14 - - WZW 1014,6 8
18.01.2018 03:00:00 1,1 -1,3 - - - 25 14 - - WZW 1015,6 12
18.01.2018 02:00:00 0,7 -1,4 - - - 25 14 - - ZW 1015,5 9
18.01.2018 01:00:00 0,4 -1,4 - - - 18 10 - - WZW 1015,6 15
18.01.2018 00:00:00 -0,2 -1,4 - - - 14 8 - - ZW 1016,0 15
17.01.2018 23:00:00 0,2 -1,4 - - - 22 12 - - WZW 1015,8 15
17.01.2018 22:00:00 0,0 -0,9 - - - 22 12 - - WZW 1015,9 6
17.01.2018 21:00:00 -0,1 -1,0 - - - 21 11 47 25 W 1015,2 3,0
17.01.2018 20:00:00 0,2 -1,7 - - - 34 18 50 27 WZW 1013,6 3,9
17.01.2018 19:00:00 -0,3 -1,9 - - - 32 18 - - WZW 1013,0 16
17.01.2018 18:00:00 -0,4 -2,0 - - - 31 17 50 27 WZW 1012,7 3,7
17.01.2018 17:00:00 -0,1 -1,9 - - - 29 16 50 27 WZW 1011,9 7
17.01.2018 16:00:00 0,3 -2,2 - - - 29 16 - - W 1011,4 16
17.01.2018 15:00:00 0,6 -4,1 0,4 2,1 - 29 16 65 35 W 1010,2 16
17.01.2018 14:00:00 0,3 -3,4 - - - 29 16 54 29 W 1009,1 20
17.01.2018 13:00:00 0,2 -2,3 - - - 24 13 - - W 1008,4 10
17.01.2018 12:00:00 -0,6 -1,2 - - - 29 16 54 29 W 1007,7 0,8
17.01.2018 11:00:00 0,6 -3,6 - - - 28 15 47 25 W 1006,5 3,9
17.01.2018 10:00:00 0,4 -2,6 - - - 22 12 - - W 1005,2 40
17.01.2018 09:00:00 -0,3 -0,9 - - - 29 16 54 29 W 1003,8 5
17.01.2018 08:00:00 0,0 -0,9 0,7 2,7 5,5 22 12 50 27 W 1002,8 0,6
17.01.2018 07:00:00 2,2 -0,3 - - - 26 14 - - WNW 1001,1 0,6
17.01.2018 06:00:00 2,3 -0,4 - - - 32 18 58 31 W 999,5 10
17.01.2018 05:00:00 2,9 0,1 - - - 29 16 47 25 WZW 998,9 10
17.01.2018 04:00:00 2,7 0,5 - - - 22 12 - - WZW 999,3 10
17.01.2018 03:00:00 2,7 0,8 - - - 25 14 - - WZW 999,1 10
17.01.2018 02:00:00 3,0 1,7 - - - 29 16 - - ZW 999,0 12
17.01.2018 01:00:00 2,9 1,2 - - - 18 10 - - ZW 999,7 15
17.01.2018 00:00:00 3,2 0,9 - - - 22 12 - - WZW 1001,2 15
16.01.2018 23:00:00 2,7 0,8 - - - 25 14 - - W 1001,1 18
16.01.2018 22:00:00 3,5 1,4 - - - 25 14 - - W 1001,1 18
16.01.2018 21:00:00 4,2 1,4 - - - 32 18 54 29 WZW 1000,7 18

tt = temperatuur
td = dauwpunt
tt -5cm = temperatuur -5cm
tt -20cm = temperatuur -20cm
tt -100cm = temperatuur -100cm
ff = windsnelheid
fx = windstoten
dd = windrichting
ppp = luchtdruk
vv = zicht

Weerstations in de omgeving